User: anonymous   Login
Location: Unspecified
(0.0000°N, 0.0000°E)
Time: 19:44:41
(UTC+00:00)
Language:

APRIZESAT 8 - Orbit

View from above orbital plane
View from above orbital plane
View from above satellite
View from above satellite

Ground track
Ground track

The orbit data is extracted from the following two-line orbital elements,

1 39425U 13066K   19077.48903614 +.00000066 +00000-0 +14887-4 0  9992
2 39425 097.5618 097.9131 0051207 333.6007 026.2599 14.81095645287258
Epoch (UTC): 18 March 2019 11:44:12
Eccentricity: 0.0051207
inclination: 97.5618°
perigee height: 590 km
apogee height: 662 km
right ascension of ascending node: 97.9131°
argument of perigee: 333.6007°
revolutions per day: 14.81095645
mean anomaly at epoch: 26.2599°
orbit number at epoch: 28725

The dashed part of the orbit path shows where the satellite is in the earth's shadow,  

DLR